Location: Unspecified
(0.0000°N, 0.0000°E)
Time: 21:44:21
(UTC+02:00)

Cosmos 1340 - Visible Passes

Search period start: 21 August 2017 00:00
Search period end: 31 August 2017 00:00
Orbit: 505 x 509 km, 81.2° (Epoch: 21 August)

Date Brightness Start Highest point End Pass type
(mag) Time Alt. Az. Time Alt. Az. Time Alt. Az.
21 Aug 6.5 06:57:47 10° E 06:57:57 10° E 06:58:07 10° E visible
24 Aug 2.7 07:36:46 10° SSW 07:40:28 56° W 07:44:11 10° N visible
25 Aug 2.6 07:19:04 10° S 07:22:51 83° W 07:26:37 10° N visible
26 Aug 3.0 07:01:28 10° S 07:05:14 68° E 07:08:58 10° NNE visible
27 Aug 3.7 06:43:58 10° S 06:47:36 46° E 06:51:13 10° NNE visible
28 Aug 4.4 06:26:34 10° SSE 06:29:57 32° E 06:33:21 10° NNE visible
29 Aug 5.0 06:09:17 10° SSE 06:12:19 23° E 06:15:21 10° NE visible
30 Aug 5.5 05:53:19 14° ESE 05:54:41 17° E 05:57:09 10° NE visible
30 Aug 4.5 07:28:31 10° WSW 07:30:04 12° W 07:31:38 10° WNW visible
